Location: Los Gatos B&B
(42.6926°N, 77.0646°W)
Time: 16:46:32
(UTC-04:00)

Amateur Radio Satellites - All Passes

Search period start: 30 August 2016 16:16
Search period end: 31 August 2016 16:16
Location: Los Gatos B&B, 42.6926°N, 77.0646°W

Satellite Date Start Highest point End Downlink Frequencies (MHz)
Time Altitude Azimuth
ITUPSAT 1 30 Aug 16:17:26 16:22:02 49° 289° (WNW) 16:26:37 437.325
ITAMSAT 1 30 Aug 16:20:10 16:24:19 24° 266° (W) 16:28:30 435.822/435.867
KKS-1 30 Aug 16:22:23 16:25:57 23° 94° (E) 16:29:29 437.445
HORYU 2 30 Aug 16:42:54 16:46:56 35° 69° (ENE) 16:50:58 437.375
BRITE-PL 30 Aug 16:43:52 16:47:12 18° 60° (ENE) 16:50:40 437.365/2234.400
SWISSCUBE 30 Aug 16:49:27 16:53:08 23° 296° (WNW) 16:56:48 437.505
STARS 30 Aug 16:49:39 16:53:03 22° 94° (E) 16:56:26 437.465
MOZHAYETS 4 30 Aug 16:50:24 16:54:58 63° 101° (E) 16:59:30
BEESAT 3 30 Aug 16:52:56 16:55:33 17° 41° (NE) 16:58:10 437.485
BEESAT 30 Aug 17:06:39 17:09:46 18° 298° (WNW) 17:12:55 436.000
NOAA 18 30 Aug 17:11:53 17:15:14 17° 58° (ENE) 17:18:36 137.9125
Cubesat XI-IV 30 Aug 17:32:47 17:37:04 25° 64° (ENE) 17:41:20 437.490
DOVE 4 30 Aug 17:33:40 17:35:36 12° 58° (ENE) 17:37:33 437.250
NOAA 15 30 Aug 17:33:51 17:38:27 32° 66° (ENE) 17:43:06 137.62
GOMX 1 30 Aug 17:40:19 17:44:42 28° 65° (ENE) 17:49:15 467.674
CUTE-I 30 Aug 17:43:11 17:47:47 31° 66° (ENE) 17:52:24 437.470
AO-7 30 Aug 17:43:31 17:49:13 20° 269° (W) 17:54:56 29.400- 29.500
Cosmos 2491 30 Aug 17:45:27 17:53:27 43° 87° (E) 18:01:31 435.465 / 435.565
KKS-1 30 Aug 17:58:32 18:02:34 34° 291° (WNW) 18:06:35 437.445
YUBILEINY 30 Aug 18:02:08 18:10:56 82° 264° (W) 18:19:38 435.215
Cosmos 2504 30 Aug 18:09:36 18:16:23 41° 74° (ENE) 18:23:05 435.465 / 435.565
BEESAT 2 30 Aug 18:18:08 18:22:04 52° 53° (NE) 18:25:59 435.950
CUBESAT XI-V 30 Aug 18:19:05 18:23:47 69° 101° (ESE) 18:28:29 437.345
HORYU 2 30 Aug 18:20:00 18:23:33 23° 265° (W) 18:27:06 437.375
BRITE-PL 30 Aug 18:20:06 18:25:00 66° 260° (W) 18:30:22 437.365/2234.400
HO-68 30 Aug 18:21:47 18:26:17 18° 53° (NE) 18:30:46 435.675
STARS 30 Aug 18:25:29 18:29:30 35° 291° (WNW) 18:33:28 437.465
MOZHAYETS 4 30 Aug 18:29:04 18:31:37 15° 298° (WNW) 18:34:10
BEESAT 3 30 Aug 18:29:40 18:33:36 60° 240° (WSW) 18:37:29 437.485
LilacSat-2 30 Aug 18:33:52 18:37:42 86° 77° (ENE) 18:41:32 437.200
NOAA 18 30 Aug 18:49:41 18:55:14 78° 256° (WSW) 19:00:47 137.9125
DOVE 4 30 Aug 19:07:10 19:12:23 80° 76° (ENE) 19:17:45 437.250
PCSat 30 Aug 19:07:51 19:11:25 17° 40° (NE) 19:14:57 145.827
Cubesat XI-IV 30 Aug 19:11:46 19:16:51 45° 261° (W) 19:21:59 437.490
NOAA 15 30 Aug 19:13:26 19:18:10 34° 263° (W) 19:22:56 137.62
CANX-2 30 Aug 19:14:55 19:18:06 21° 67° (ENE) 19:21:18 2200.000
GOMX 1 30 Aug 19:17:40 19:22:32 41° 264° (W) 19:27:39 467.674
CUTE 1.7 + AOD 2 30 Aug 19:20:21 19:23:32 21° 67° (ENE) 19:26:43 437.475
AIST 2 30 Aug 19:20:30 19:22:58 15° 39° (NE) 19:25:24 435.215
STRAND 1 30 Aug 19:21:38 19:24:54 17° 91° (E) 19:28:09 437.568
COMPASS 1 30 Aug 19:22:02 19:23:02 11° 61° (ENE) 19:24:02 437.405
CUTE-I 30 Aug 19:22:51 19:27:44 36° 263° (W) 19:32:37 437.470
CUBEBUG 2 30 Aug 19:24:36 19:25:17 10° 60° (ENE) 19:25:58 437.445
CINEMA 3 30 Aug 19:24:38 19:29:12 36° 70° (ENE) 19:33:42 145.822/145.860
Cosmos 2491 30 Aug 19:42:03 19:50:14 44° 287° (WNW) 19:58:32 435.465 / 435.565
BEESAT 2 30 Aug 19:57:12 19:59:28 15° 250° (WSW) 20:01:44 435.950
CUBESAT XI-V 30 Aug 19:58:07 20:00:35 14° 299° (WNW) 20:03:05 437.345
YUBILEINY 30 Aug 20:01:27 20:06:15 16° 285° (WNW) 20:11:04 435.215
Cosmos 2504 30 Aug 20:03:14 20:09:34 35° 274° (W) 20:15:55 435.465 / 435.565
HO-68 30 Aug 20:05:45 20:12:57 83° 72° (ENE) 20:20:11 435.675
Oscar 11 30 Aug 20:20:39 20:23:18 16° 64° (ENE) 20:25:56 145.826/435.025
SEEDS 30 Aug 20:21:01 20:25:08 69° 75° (ENE) 20:29:17 437.485
AIST 1 30 Aug 20:27:07 20:31:32 73° 80° (E) 20:35:54
FUNcube-1 30 Aug 20:32:07 20:35:18 20° 66° (ENE) 20:38:27 145.935
AAUSAT CUBESAT 2 30 Aug 20:42:26 20:46:30 64° 74° (ENE) 20:50:35 437.432
UWE-3 30 Aug 20:47:20 20:51:41 47° 72° (ENE) 20:55:57 435.000/436.395/437.385
DOVE 4 30 Aug 20:48:12 20:50:40 13° 273° (W) 20:53:11 437.250
CANX-2 30 Aug 20:49:56 20:53:46 34° 263° (W) 20:57:36 2200.000
PCSat 30 Aug 20:50:09 20:55:37 87° 65° (ENE) 21:01:02 145.827
COMPASS 1 30 Aug 20:53:52 20:57:59 73° 257° (WSW) 21:02:08 437.405
ZACube-1 30 Aug 20:54:32 20:58:35 36° 71° (ENE) 21:02:33 437.345
CUTE 1.7 + AOD 2 30 Aug 20:55:21 20:59:10 34° 263° (W) 21:03:01 437.475
CUBEBUG 2 30 Aug 20:56:33 21:01:13 88° 74° (ENE) 21:05:47 437.445
AIST 2 30 Aug 20:57:47 21:01:59 81° 238° (WSW) 21:06:09 435.215
STRAND 1 30 Aug 20:59:26 21:04:28 60° 288° (WNW) 21:09:29 437.568
CINEMA 3 30 Aug 21:02:07 21:06:21 27° 266° (W) 21:10:34 145.822/145.860
HUMSAT D 30 Aug 21:13:48 21:15:22 12° 63° (ENE) 21:16:58 437.325/437.525
PRISM 30 Aug 21:19:49 21:23:22 26° 96° (E) 21:26:55 437.425
DELFI C3 30 Aug 21:52:29 21:56:21 63° 75° (ENE) 22:00:16 145.870
Oscar 11 30 Aug 21:54:52 21:59:02 49° 261° (W) 22:03:14 145.826/435.025
HO-68 30 Aug 21:56:44 22:01:27 18° 270° (W) 22:06:12 435.675
SO-50 30 Aug 21:58:00 21:59:21 11° 107° (ESE) 22:00:43 436.795
SEEDS 30 Aug 22:01:02 22:01:18 10° 272° (W) 22:01:34 437.485
FUNcube-1 30 Aug 22:07:09 22:11:17 39° 262° (W) 22:15:22 145.935
ANTELSAT 30 Aug 22:13:44 22:14:39 11° 89° (E) 22:15:34 437.575/2403.000
GONETS M04 30 Aug 22:17:58 22:25:57 36° 70° (ENE) 22:33:51
AUBIESAT-1 30 Aug 22:20:55 22:24:40 25° 61° (ENE) 22:28:22 437.475
AAUSAT CUBESAT 2 30 Aug 22:21:33 22:22:23 11° 271° (W) 22:23:15 437.432
UWE-3 30 Aug 22:25:23 22:28:21 17° 268° (W) 22:31:18 435.000/436.395/437.385
M-CUBED/EXP-1 PRIME 30 Aug 22:29:02 22:33:18 35° 64° (ENE) 22:37:33 437.505
ZACube-1 30 Aug 22:31:33 22:34:56 21° 266° (W) 22:38:18 437.345
PCSat 30 Aug 22:35:53 22:38:12 13° 257° (WSW) 22:40:30 145.827
TIGRISAT 30 Aug 22:41:38 22:44:54 21° 94° (E) 22:48:09 435.000
AISAT 30 Aug 22:43:21 22:45:11 12° 60° (ENE) 22:47:02 437.250
HUMSAT D 30 Aug 22:46:22 22:50:29 64° 259° (WSW) 22:54:34 437.325/437.525
ESTCUBE 1 30 Aug 22:47:35 22:51:06 23° 66° (ENE) 22:54:38 437.505/2401.250
PRISM 30 Aug 22:55:04 22:58:36 27° 292° (WNW) 23:02:08 437.425
Cosmos 2499 30 Aug 22:56:33 23:03:12 42° 74° (ENE) 23:09:56 435.465 / 435.565
UNISAT 6 30 Aug 23:10:48 23:14:57 47° 100° (E) 23:19:03 437.425
50 SAT 30 Aug 23:18:53 23:21:36 21° 68° (ENE) 23:24:19 437.505
O/OREOS (USA 219) 30 Aug 23:19:32 23:24:06 61° 65° (ENE) 23:28:39 437.305
CUBEBUG 1 30 Aug 23:20:41 23:24:36 32° 69° (ENE) 23:28:33 437.445
SPROUT 30 Aug 23:23:30 23:25:57 15° 63° (ENE) 23:28:24 437.525
VELOX 1 30 Aug 23:27:50 23:31:46 32° 69° (ENE) 23:35:44 145.980
DX 1 30 Aug 23:33:31 23:37:07 25° 67° (ENE) 23:40:44 434.975-435.025
SO-50 30 Aug 23:34:15 23:39:07 89° 116° (ESE) 23:43:58 436.795
DUCHIFAT 1 30 Aug 23:37:26 23:38:30 11° 89° (E) 23:39:35 145.980
QB50P2 30 Aug 23:43:51 23:46:32 16° 92° (E) 23:49:12 145.880/145.840
POLYITAN 1 30 Aug 23:46:20 23:49:02 16° 92° (E) 23:51:43 437.675
ANTELSAT 30 Aug 23:47:35 23:51:51 67° 285° (WNW) 23:56:04 437.575/2403.000
RS-15 30 Aug 23:49:06 23:57:52 26° 100° (E) 00:06:54 29.354- 29.394
NANOSAT C BR1 30 Aug 23:51:29 23:54:19 17° 93° (E) 23:57:08 145.865
AUBIESAT-1 30 Aug 23:54:31 23:58:52 40° 257° (WSW) 00:03:13 437.475
DANDE 30 Aug 23:55:40 23:57:55 25° 92° (E) 00:00:25 436.750
M-CUBED/EXP-1 PRIME 31 Aug 00:03:46 00:07:47 28° 260° (W) 00:11:48 437.505
CUSAT 1 31 Aug 00:06:35 00:09:34 40° 287° (WNW) 00:13:23 437.405
UKube-1 31 Aug 00:06:36 00:10:41 43° 71° (ENE) 00:14:48 .
JAS-2 31 Aug 00:12:25 00:18:14 27° 93° (E) 00:24:24 435.910
GONETS M04 31 Aug 00:14:34 00:23:05 54° 270° (W) 00:31:33
AISAT 31 Aug 00:16:35 00:21:02 75° 258° (WSW) 00:25:32 437.250
BUGSAT 1 31 Aug 00:17:17 00:19:08 13° 90° (E) 00:20:59 437.445
TIGRISAT 31 Aug 00:17:50 00:21:41 33° 290° (WNW) 00:25:30 435.000
ESTCUBE 1 31 Aug 00:23:35 00:27:42 36° 263° (W) 00:31:52 437.505/2401.250
PHONESAT 2.4 31 Aug 00:33:43 00:35:47 17° 154° (SSE) 00:37:51 2401.200-2431.200
QB50P1 31 Aug 00:36:40 00:40:51 59° 101° (E) 00:44:58 145.935-145.965
POPSAT HIP 1 31 Aug 00:47:00 00:51:14 77° 102° (ESE) 00:55:25 437.405
UNISAT 6 31 Aug 00:48:36 00:51:18 16° 296° (WNW) 00:53:58 437.425
Cosmos 2499 31 Aug 00:49:58 00:56:08 34° 273° (W) 01:02:26 435.465 / 435.565
50 SAT 31 Aug 00:52:03 00:55:03 25° 264° (W) 00:58:04 437.505
SPROUT 31 Aug 00:57:12 01:01:26 55° 260° (W) 01:05:41 437.525
CUBEBUG 1 31 Aug 00:57:18 01:00:54 24° 266° (W) 01:04:32 437.445
O/OREOS (USA 219) 31 Aug 01:00:36 01:02:58 14° 262° (W) 01:05:19 437.305
TISAT 1 31 Aug 01:03:27 01:07:22 37° 70° (ENE) 01:11:18 437.305
VELOX 1 31 Aug 01:04:35 01:08:14 25° 265° (W) 01:11:56 145.980
DX 1 31 Aug 01:09:18 01:13:11 31° 263° (W) 01:17:06 434.975-435.025
DUCHIFAT 1 31 Aug 01:10:28 01:14:38 65° 285° (WNW) 01:18:45 145.980
SO-50 31 Aug 01:17:04 01:20:15 17° 322° (NW) 01:23:25 436.795
QB50P2 31 Aug 01:18:33 01:22:34 43° 288° (WNW) 01:26:33 145.880/145.840
POLYITAN 1 31 Aug 01:21:03 01:25:03 43° 288° (WNW) 01:29:01 437.675
NANOSAT C BR1 31 Aug 01:26:17 01:30:14 40° 289° (WNW) 01:34:08 145.865
Oscar 19 31 Aug 01:30:38 01:34:04 18° 91° (E) 01:37:28 437.125/150
UKube-1 31 Aug 01:44:02 01:46:55 17° 267° (W) 01:49:51 .
ITUPSAT 1 31 Aug 01:48:01 01:51:49 24° 65° (ENE) 01:55:37 437.325
BUGSAT 1 31 Aug 01:50:50 01:54:51 53° 287° (WNW) 01:58:48 437.445
JAS-2 31 Aug 01:56:41 02:03:32 64° 288° (WNW) 02:11:03 435.910
RS-15 31 Aug 01:57:06 02:08:43 87° 303° (WNW) 02:21:00 29.354- 29.394
PHONESAT 2.4 31 Aug 02:08:50 02:11:44 46° 170° (S) 02:14:37 2401.200-2431.200
QB50P1 31 Aug 02:14:03 02:16:07 13° 298° (WNW) 02:18:11 145.935-145.965
SWISSCUBE 31 Aug 02:18:05 02:22:41 52° 72° (ENE) 02:27:18 437.505
POPSAT HIP 1 31 Aug 02:25:24 02:26:24 11° 299° (WNW) 02:27:23 437.405
BEESAT 31 Aug 02:34:39 02:39:22 70° 74° (ENE) 02:44:06 436.000
TISAT 1 31 Aug 02:40:03 02:43:08 19° 267° (W) 02:46:14 437.305
ITAMSAT 1 31 Aug 02:53:23 02:55:59 14° 90° (E) 02:58:36 435.822/435.867
Oscar 19 31 Aug 03:08:38 03:13:46 59° 288° (WNW) 03:18:51 437.125/150
Gurwin Techsat 1B 31 Aug 03:08:54 03:14:13 66° 102° (ESE) 03:19:29 435.225
KKS-1 31 Aug 03:21:09 03:24:46 24° 66° (ENE) 03:28:23 437.445
ITUPSAT 1 31 Aug 03:25:01 03:29:26 38° 262° (W) 03:33:53 437.325
AO-85 31 Aug 03:36:21 03:38:09 12° 107° (ESE) 03:39:57 145.980
JAS-2 31 Aug 03:44:24 03:47:27 13° 306° (NW) 03:50:37 435.910
PHONESAT 2.4 31 Aug 03:44:58 03:47:54 51° 186° (S) 03:50:49 2401.200-2431.200
STARS 31 Aug 03:47:02 03:50:28 23° 66° (ENE) 03:53:56 437.465
AO-7 31 Aug 03:48:43 03:55:31 27° 94° (E) 04:02:17 29.400- 29.500
MOZHAYETS 4 31 Aug 03:52:44 03:57:14 64° 74° (ENE) 04:01:46
Cosmos 2491 31 Aug 03:54:56 04:01:30 22° 63° (ENE) 04:08:03 435.465 / 435.565
SWISSCUBE 31 Aug 03:57:42 04:00:47 17° 268° (W) 04:03:52 437.505
RS-15 31 Aug 04:12:35 04:23:08 35° 331° (NNW) 04:34:07 29.354- 29.394
BEESAT 31 Aug 04:15:31 04:17:38 13° 270° (W) 04:19:45 436.000
ITAMSAT 1 31 Aug 04:30:50 04:36:00 74° 287° (WNW) 04:41:10 435.822/435.867
Gurwin Techsat 1B 31 Aug 04:50:08 04:53:37 18° 299° (WNW) 04:57:05 435.225
KKS-1 31 Aug 04:57:05 05:01:09 34° 263° (W) 05:05:16 437.445
YUBILEINY 31 Aug 05:09:37 05:16:12 24° 80° (E) 05:22:47 435.215
AO-85 31 Aug 05:12:40 05:17:59 84° 124° (SE) 05:23:00 145.980
PHONESAT 2.4 31 Aug 05:21:33 05:23:54 21° 203° (SSW) 05:26:15 2401.200-2431.200
STARS 31 Aug 05:22:31 05:26:37 36° 262° (W) 05:30:44 437.465
CUBESAT XI-V 31 Aug 05:22:50 05:27:24 72° 75° (ENE) 05:32:03 437.345
MOZHAYETS 4 31 Aug 05:32:45 05:34:50 13° 270° (W) 05:36:55
AO-7 31 Aug 05:40:38 05:48:53 68° 293° (WNW) 05:57:04 29.400- 29.500
Cosmos 2491 31 Aug 05:50:35 05:59:28 84° 264° (W) 06:08:19 435.465 / 435.565
NOAA 15 31 Aug 05:51:02 05:51:48 10° 87° (E) 05:52:36 137.62
CUTE-I 31 Aug 06:02:16 06:02:58 10° 87° (E) 06:03:42 437.470
HORYU 2 31 Aug 06:08:55 06:13:19 61° 102° (ESE) 06:17:40 437.375
ITAMSAT 1 31 Aug 06:13:36 06:14:33 10° 304° (NW) 06:15:31 435.822/435.867
BRITE-PL 31 Aug 06:24:02 06:29:29 44° 97° (E) 06:34:43 437.365/2234.400
SO-50 31 Aug 06:25:48 06:28:46 16° 37° (NE) 06:31:40 436.795
RS-15 31 Aug 06:31:03 06:40:42 26° 6° (N) 06:50:28 29.354- 29.394
STRAND 1 31 Aug 06:37:57 06:42:10 27° 65° (ENE) 06:46:25 437.568
Cosmos 2504 31 Aug 06:48:28 06:55:50 37° 87° (E) 07:02:46 435.465 / 435.565
AO-85 31 Aug 06:55:25 06:59:01 19° 320° (NW) 07:02:29 145.980
YUBILEINY 31 Aug 07:03:14 07:12:04 74° 280° (W) 07:20:56 435.215
CUBESAT XI-V 31 Aug 07:03:39 07:05:18 12° 272° (W) 07:06:58 437.345
DOVE 4 31 Aug 07:06:44 07:10:30 21° 91° (E) 07:14:05 437.250
NOAA 18 31 Aug 07:11:10 07:16:21 41° 99° (E) 07:21:28 137.9125
GOMX 1 31 Aug 07:18:38 07:23:59 64° 100° (E) 07:29:00 467.674
NOAA 15 31 Aug 07:26:59 07:32:20 85° 104° (ESE) 07:37:40 137.62
ISS 31 Aug 07:27:05 07:29:56 28° 137° (SE) 07:32:49 145.825
Cubesat XI-IV 31 Aug 07:27:50 07:33:10 68° 103° (ESE) 07:38:27 437.490
HO-68 31 Aug 07:35:08 07:38:39 14° 87° (E) 07:42:08 435.675
AO-7 31 Aug 07:35:21 07:40:09 17° 314° (NW) 07:44:58 29.400- 29.500
CUTE-I 31 Aug 07:38:26 07:43:46 85° 102° (ESE) 07:49:06 437.470
LilacSat-2 31 Aug 07:40:39 07:44:25 68° 285° (WNW) 07:48:09 437.200
HORYU 2 31 Aug 07:47:01 07:49:21 14° 298° (WNW) 07:51:42 437.375
Cosmos 2491 31 Aug 07:49:50 07:54:53 17° 284° (WNW) 07:59:56 435.465 / 435.565
BRITE-PL 31 Aug 08:02:52 08:07:40 29° 295° (WNW) 08:12:21 437.365/2234.400
SO-50 31 Aug 08:05:15 08:09:53 86° 236° (SW) 08:14:22 436.795
SEEDS 31 Aug 08:06:34 08:07:36 11° 89° (E) 08:08:39 437.485
PRISM 31 Aug 08:10:13 08:13:23 22° 66° (ENE) 08:16:34 437.425
STRAND 1 31 Aug 08:16:27 08:21:11 38° 262° (W) 08:25:56 437.568
BEESAT 3 31 Aug 08:21:50 08:24:27 17° 111° (ESE) 08:27:06 437.485
CANX-2 31 Aug 08:33:45 08:37:42 36° 97° (E) 08:41:38 2200.000
COMPASS 1 31 Aug 08:36:53 08:39:36 17° 92° (E) 08:42:19 437.405
CUTE 1.7 + AOD 2 31 Aug 08:39:04 08:43:00 36° 97° (E) 08:46:55 437.475
Cosmos 2504 31 Aug 08:41:04 08:49:01 47° 285° (WNW) 08:56:28 435.465 / 435.565
DOVE 4 31 Aug 08:43:41 08:48:25 43° 290° (WNW) 08:52:51 437.250
RS-15 31 Aug 08:45:49 08:57:34 46° 39° (NE) 09:09:09 29.354- 29.394
CUBEBUG 2 31 Aug 08:48:03 08:50:39 16° 91° (E) 08:53:13 437.445
NOAA 18 31 Aug 08:52:12 08:56:48 28° 296° (WNW) 09:01:22 137.9125
CUSAT 1 31 Aug 08:54:30 08:59:38 22° 67° (ENE) 09:05:18 437.405
CINEMA 3 31 Aug 08:55:33 09:00:02 74° 102° (ESE) 09:04:17 145.822/145.860
AIST 1 31 Aug 08:57:02 09:01:06 40° 92° (E) 09:05:13
GOMX 1 31 Aug 08:57:51 09:01:28 19° 299° (WNW) 09:04:57 467.674
ISS 31 Aug 09:03:10 09:06:18 40° 334° (NNW) 09:09:27 145.825
YUBILEINY 31 Aug 09:05:34 09:10:36 16° 303° (WNW) 09:15:40 435.215
NOAA 15 31 Aug 09:08:37 09:11:23 14° 302° (WNW) 09:14:09 137.62
Cubesat XI-IV 31 Aug 09:09:15 09:12:40 18° 300° (WNW) 09:16:05 437.490
ANTELSAT 31 Aug 09:12:57 09:14:56 13° 62° (ENE) 09:16:54 437.575/2403.000
HO-68 31 Aug 09:20:11 09:27:24 82° 105° (ESE) 09:34:33 435.675
CUTE-I 31 Aug 09:20:23 09:23:06 14° 302° (WNW) 09:25:49 437.470
SEEDS 31 Aug 09:39:32 09:43:44 67° 286° (WNW) 09:47:56 437.485
TIGRISAT 31 Aug 09:40:55 09:44:28 23° 67° (ENE) 09:47:58 435.000
Oscar 11 31 Aug 09:41:28 09:45:09 27° 95° (E) 09:48:49 145.826/435.025
PRISM 31 Aug 09:44:48 09:48:30 32° 263° (W) 09:52:14 437.425
BEESAT 2 31 Aug 09:47:48 09:51:44 78° 122° (ESE) 09:55:44 435.950
FUNcube-1 31 Aug 09:54:17 09:58:03 33° 97° (E) 10:01:48 145.935
BEESAT 3 31 Aug 09:58:03 10:01:48 42° 309° (NW) 10:05:35 437.485
AAUSAT CUBESAT 2 31 Aug 09:59:05 10:03:16 74° 284° (WNW) 10:07:26 437.432
UNISAT 6 31 Aug 10:09:55 10:14:18 47° 72° (ENE) 10:18:36 437.425
CANX-2 31 Aug 10:10:10 10:13:19 21° 294° (WNW) 10:16:28 2200.000
COMPASS 1 31 Aug 10:11:23 10:15:21 42° 288° (WNW) 10:19:19 437.405
UWE-3 31 Aug 10:12:25 10:16:37 87° 279° (W) 10:20:44 435.000/436.395/437.385
CUTE 1.7 + AOD 2 31 Aug 10:15:27 10:18:36 21° 294° (WNW) 10:21:46 437.475
ZACube-1 31 Aug 10:17:49 10:21:58 68° 101° (ESE) 10:26:05 437.345
CUBEBUG 2 31 Aug 10:23:32 10:27:32 42° 288° (WNW) 10:31:27 437.445
DANDE 31 Aug 10:28:03 10:33:32 42° 76° (ENE) 10:40:24 436.750
HUMSAT D 31 Aug 10:29:44 10:32:35 18° 93° (E) 10:35:26 437.325/437.525
DUCHIFAT 1 31 Aug 10:31:11 10:31:43 10° 60° (ENE) 10:32:15 145.980
CINEMA 3 31 Aug 10:34:54 10:36:30 12° 300° (WNW) 10:38:03 145.822/145.860
CUSAT 1 31 Aug 10:35:18 10:42:06 80° 262° (W) 10:50:01 437.405
AIST 1 31 Aug 10:35:51 10:38:53 18° 290° (WNW) 10:41:58
QB50P2 31 Aug 10:37:43 10:40:09 15° 63° (ENE) 10:42:35 145.880/145.840
POLYITAN 1 31 Aug 10:40:11 10:42:39 15° 63° (ENE) 10:45:06 437.675
ISS 31 Aug 10:41:05 10:43:25 18° 354° (N) 10:45:45 145.825
NANOSAT C BR1 31 Aug 10:44:49 10:47:23 16° 64° (ENE) 10:49:56 145.865
ANTELSAT 31 Aug 10:46:32 10:51:06 73° 259° (W) 10:55:35 437.575/2403.000
AIST 2 31 Aug 10:57:13 10:59:53 17° 111° (ESE) 11:02:35 435.215
RS-15 31 Aug 10:58:40 11:10:53 69° 244° (WSW) 11:22:50 29.354- 29.394
DELFI C3 31 Aug 11:03:45 11:07:48 85° 282° (WNW) 11:11:49 145.870
BUGSAT 1 31 Aug 11:08:32 11:10:00 12° 61° (ENE) 11:11:27 437.445
HO-68 31 Aug 11:09:11 11:14:19 22° 305° (NW) 11:19:26 435.675
TIGRISAT 31 Aug 11:16:43 11:20:57 37° 262° (W) 11:25:07 435.000
Oscar 11 31 Aug 11:17:33 11:21:13 28° 292° (WNW) 11:24:53 145.826/435.025
GONETS M04 31 Aug 11:20:12 11:28:03 39° 85° (E) 11:35:58
BEESAT 2 31 Aug 11:27:53 11:30:05 14° 321° (NW) 11:32:17 435.950
QB50P1 31 Aug 11:29:28 11:33:35 48° 72° (ENE) 11:37:42 145.935-145.965
FUNcube-1 31 Aug 11:31:00 11:34:06 21° 293° (WNW) 11:37:12 145.935
PCSat 31 Aug 11:32:12 11:37:34 71° 117° (ESE) 11:42:59 145.827
Cosmos 2499 31 Aug 11:34:04 11:41:05 35° 87° (E) 11:47:41 435.465 / 435.565
AUBIESAT-1 31 Aug 11:35:04 11:36:18 11° 94° (E) 11:37:31 437.475
POPSAT HIP 1 31 Aug 11:39:46 11:44:00 62° 73° (ENE) 11:48:13 437.405
M-CUBED/EXP-1 PRIME 31 Aug 11:43:07 11:45:54 18° 97° (E) 11:48:32 437.505
UNISAT 6 31 Aug 11:48:11 11:51:13 17° 268° (W) 11:54:15 437.425
ZACube-1 31 Aug 11:56:20 11:57:42 11° 298° (WNW) 11:59:03 437.345
DUCHIFAT 1 31 Aug 12:02:29 12:06:45 83° 257° (WSW) 12:11:02 145.980
HUMSAT D 31 Aug 12:04:34 12:08:20 37° 289° (WNW) 12:12:07 437.325/437.525
AO-85 31 Aug 12:05:19 12:07:30 13° 35° (NE) 12:09:37 145.980
AISAT 31 Aug 12:06:50 12:10:05 20° 93° (E) 12:13:19 437.250
JAS-2 31 Aug 12:10:30 12:15:40 62° 72° (ENE) 12:21:19 435.910
DANDE 31 Aug 12:10:55 12:16:14 35° 267° (W) 12:22:45 436.750
QB50P2 31 Aug 12:11:20 12:15:30 54° 259° (W) 12:19:43 145.880/145.840
POLYITAN 1 31 Aug 12:13:50 12:18:01 53° 260° (W) 12:22:13 437.675
ESTCUBE 1 31 Aug 12:14:49 12:19:10 43° 99° (E) 12:23:29 437.505/2401.250
ISS 31 Aug 12:18:07 12:20:44 21° 14° (NNE) 12:23:21 145.825
NANOSAT C BR1 31 Aug 12:18:33 12:22:42 50° 260° (W) 12:26:52 145.865
50 SAT 31 Aug 12:19:11 12:22:06 22° 95° (E) 12:25:01 437.505
CUSAT 1 31 Aug 12:19:35 12:23:25 15° 276° (W) 12:27:30 437.405
AIST 2 31 Aug 12:34:01 12:37:59 48° 308° (NW) 12:42:01 435.215
BUGSAT 1 31 Aug 12:40:32 12:44:47 73° 258° (WSW) 12:49:02 437.445
SPROUT 31 Aug 12:42:51 12:46:16 23° 94° (E) 12:49:39 437.525
CUBEBUG 1 31 Aug 12:44:04 12:48:27 58° 101° (E) 12:52:47 437.445
Oscar 19 31 Aug 12:47:51 12:52:13 28° 66° (ENE) 12:56:36 437.125/150
VELOX 1 31 Aug 12:52:52 12:57:17 57° 101° (E) 13:01:39 145.980
Gurwin Techsat 1B 31 Aug 12:53:34 12:56:45 16° 59° (ENE) 12:59:55 435.225
DX 1 31 Aug 12:56:10 13:00:20 40° 99° (E) 13:04:27 434.975-435.025
AO-7 31 Aug 13:04:35 13:05:24 10° 38° (NE) 13:06:13 29.400- 29.500
QB50P1 31 Aug 13:07:05 13:09:37 15° 268° (W) 13:12:10 145.935-145.965
AUBIESAT-1 31 Aug 13:07:20 13:11:13 53° 293° (WNW) 13:14:47 437.475
RS-15 31 Aug 13:14:39 13:20:52 16° 266° (W) 13:27:03 29.354- 29.394
GONETS M04 31 Aug 13:16:16 13:24:39 48° 286° (WNW) 13:33:10
M-CUBED/EXP-1 PRIME 31 Aug 13:16:55 13:20:36 34° 296° (WNW) 13:24:00 437.505
PCSat 31 Aug 13:17:24 13:21:31 21° 317° (NW) 13:25:38 145.827
POPSAT HIP 1 31 Aug 13:18:29 13:20:09 12° 270° (W) 13:21:50 437.405
Cosmos 2499 31 Aug 13:26:22 13:34:00 46° 285° (WNW) 13:41:08 435.465 / 435.565
UKube-1 31 Aug 13:28:30 13:32:51 72° 103° (ESE) 13:37:09 .
O/OREOS (USA 219) 31 Aug 13:32:24 13:36:49 61° 109° (ESE) 13:41:18 437.305
AISAT 31 Aug 13:42:31 13:46:43 40° 290° (WNW) 13:50:52 437.250
AO-85 31 Aug 13:44:25 13:48:43 85° 56° (ENE) 13:52:42 145.980
ESTCUBE 1 31 Aug 13:52:21 13:55:39 20° 295° (WNW) 13:58:59 437.505/2401.250
50 SAT 31 Aug 13:52:38 13:55:37 24° 291° (WNW) 13:58:35 437.505
ISS 31 Aug 13:54:19 13:57:36 79° 31° (NNE) 14:00:53 145.825
JAS-2 31 Aug 13:58:09 14:01:26 16° 272° (W) 14:04:52 435.910
ITAMSAT 1 31 Aug 14:11:28 14:15:36 25° 64° (ENE) 14:19:44 435.822/435.867
SPROUT 31 Aug 14:18:26 14:22:14 32° 291° (WNW) 14:26:00 437.525
SWISSCUBE 31 Aug 14:19:23 14:21:22 12° 90° (E) 14:23:20 437.505
CUBEBUG 1 31 Aug 14:21:44 14:24:15 15° 298° (WNW) 14:26:46 437.445
TISAT 1 31 Aug 14:21:44 14:25:54 60° 101° (E) 14:30:01 437.305
Oscar 19 31 Aug 14:26:36 14:31:22 38° 263° (W) 14:36:12 437.125/150
VELOX 1 31 Aug 14:30:39 14:33:17 16° 298° (WNW) 14:35:53 145.980
Gurwin Techsat 1B 31 Aug 14:30:46 14:36:04 74° 257° (WSW) 14:41:24 435.225
DX 1 31 Aug 14:33:02 14:36:14 20° 295° (WNW) 14:39:25 434.975-435.025
BEESAT 31 Aug 14:35:09 14:38:10 16° 92° (E) 14:41:10 436.000
AO-7 31 Aug 14:48:17 14:55:56 42° 60° (ENE) 15:03:36 29.400- 29.500
UKube-1 31 Aug 15:06:36 15:08:18 12° 300° (WNW) 15:09:59 .
O/OREOS (USA 219) 31 Aug 15:13:50 15:16:39 16° 308° (NW) 15:19:30 437.305
YUBILEINY 31 Aug 15:19:18 15:22:14 12° 53° (NE) 15:25:10 435.215
ITUPSAT 1 31 Aug 15:24:14 15:28:53 50° 100° (E) 15:33:31 437.325
ISS 31 Aug 15:32:03 15:33:39 13° 229° (SW) 15:35:15 145.825
MOZHAYETS 4 31 Aug 15:48:25 15:50:51 14° 90° (E) 15:53:19
ITAMSAT 1 31 Aug 15:49:52 15:54:49 44° 261° (W) 15:59:46 435.822/435.867
SWISSCUBE 31 Aug 15:54:53 15:59:39 72° 286° (WNW) 16:04:24 437.505
TISAT 1 31 Aug 15:59:01 16:01:02 13° 298° (WNW) 16:03:04 437.305
